Weather History for Mullan Pass, ID

Change the Weather History Date:

Tuesday, October 22, 2013

  Actual Average (K3TH) Record (K3TH)
Temperature  
Mean Temperature 46 °F -  
Max Temperature 53 °F 52 °F 64 °F (1999)
Min Temperature 39 °F 33 °F 30 °F (1998)
Degree Days  
Heating Degree Days 19    
Moisture  
Dew Point 34 °F    
Average Humidity 64    
Maximum Humidity 83    
Minimum Humidity 50    
Precipitation  
Precipitation 0.00 in - - ()
Sea Level Pressure  
Sea Level Pressure 30.08 in    
Wind  
Wind Speed 5 mph (NW)    
Max Wind Speed 7 mph    
Max Gust Speed -    
Visibility 10 miles    
Events      
Averages and records for this station are not official NWS values.
T = Trace of Precipitation, MM = Missing Value Source: NWS Daily Summary

Daily Weather History Graph

Daily Weather History Graph

Search for Another Location

Airport:

Trip Planner

Search our weather history database for the weather conditions in past years. The results will help you decide how hot, cold, wet, or windy it might be!

Date:

Astronomy

Oct. 22, 2013 Rise Set
Actual Time 7:11 AM PDT 5:41 PM PDT
Civil Twilight 6:40 AM PDT 6:12 PM PDT
Nautical Twilight 6:04 AM PDT 6:48 PM PDT
Astronomical Twilight 5:29 AM PDT 7:24 PM PDT
Moon 8:14 PM PDT (10/22) 10:54 AM PDT (10/22)
Length of Visible Light 11h 32m
Length of Day
10h 29m
Waning Gibbous, 86% of the Moon is Illuminated
Oct 22
Waning Gibbous
Oct 26
Last Quarter
Nov 3
New
Nov 9
First Quarter
Nov 17
Full

Hourly Weather History & Observations

Time (PDT) Temp. Windchill Dew Point Humidity Pressure Visibility Wind Dir Wind Speed Gust Speed Precip Events Conditions
12:53 AM 39.9 °F 35.8 °F 35.1 °F 83% 30.10 in 10.0 mi WNW 5.8 mph - N/A   Clear
1:53 AM 42.1 °F 38.4 °F 35.1 °F 76% 30.08 in 10.0 mi NW 5.8 mph - N/A   Clear
2:53 AM 41.0 °F 36.4 °F 35.1 °F 79% 30.08 in 10.0 mi NW 6.9 mph - N/A   Clear
3:53 AM 41.0 °F 38.0 °F 35.1 °F 79% 30.08 in 10.0 mi NW 4.6 mph - N/A   Clear
4:53 AM 41.0 °F 36.4 °F 35.1 °F 79% 30.13 in 10.0 mi WNW 6.9 mph - N/A   Clear
5:53 AM 42.1 °F 39.2 °F 35.1 °F 76% 30.14 in 10.0 mi WNW 4.6 mph - N/A   Clear
6:53 AM 42.1 °F 40.2 °F 35.1 °F 76% 30.10 in 10.0 mi Variable 3.5 mph - N/A   Clear
7:53 AM 42.1 °F 40.2 °F 35.1 °F 76% 30.11 in 10.0 mi NW 3.5 mph - N/A   Clear
8:53 AM 46.0 °F 43.9 °F 35.1 °F 66% 30.10 in 10.0 mi WNW 4.6 mph - N/A   Clear
9:53 AM 48.0 °F - 36.0 °F 63% 30.10 in - Variable 3.5 mph - N/A   Clear
10:53 AM 48.9 °F - 37.0 °F 64% 30.10 in - Variable 3.5 mph - N/A   Clear
11:53 AM 50.0 °F - 37.0 °F 61% 30.09 in - NW 4.6 mph - N/A   Clear
12:53 PM 52.0 °F - 37.0 °F 57% 30.08 in 10.0 mi NW 3.5 mph - N/A   Clear
1:53 PM 53.1 °F - 36.0 °F 52% 30.05 in 10.0 mi Variable 3.5 mph - N/A   Clear
2:53 PM 52.0 °F - 34.0 °F 50% 30.06 in 10.0 mi Variable 5.8 mph - N/A   Clear
3:53 PM 52.0 °F - 34.0 °F 50% 30.06 in 10.0 mi Variable 3.5 mph - N/A   Clear
4:53 PM 48.9 °F - 33.1 °F 54% 30.06 in 10.0 mi Variable 4.6 mph - N/A   Clear
5:53 PM 46.0 °F 43.1 °F 34.0 °F 63% 30.06 in 10.0 mi NNW 5.8 mph - N/A   Clear
6:53 PM 46.0 °F 43.9 °F 33.1 °F 61% 30.06 in 10.0 mi NW 4.6 mph - N/A   Clear
7:53 PM 46.0 °F 43.1 °F 32.0 °F 58% 30.06 in 10.0 mi WNW 5.8 mph - N/A   Clear
8:53 PM 45.0 °F 42.6 °F 30.0 °F 56% 30.05 in 10.0 mi NW 4.6 mph - N/A   Clear
9:53 PM 46.0 °F 44.8 °F 30.9 °F 56% 30.04 in 10.0 mi WNW 3.5 mph - N/A   Clear
10:53 PM 46.0 °F 44.8 °F 30.0 °F 54% 30.03 in 10.0 mi WNW 3.5 mph - N/A   Clear
11:53 PM 46.0 °F - 30.0 °F 54% 30.03 in 10.0 mi Calm Calm - N/A   Clear